Cairo, Egypt

4:54 AM EET on May 22, 2018 (GMT +0200)
Cairo International Airport

Weather History for HECA - May, 2013

Change the Weather History Date:

Thursday, May 30, 2013

  Actual Average Record
Temperature  
Mean Temperature 86 °F -  
Max Temperature 96 °F 91 °F 108 °F (2014)
Min Temperature 77 °F 69 °F 66 °F (1997)
Cooling Degree Days 22    
Growing Degree Days 36 (Base 50)    
Moisture  
Dew Point 52 °F    
Average Humidity 33    
Maximum Humidity 65    
Minimum Humidity 4    
Precipitation  
Precipitation 0.00 in 0.00 in - ()
Sea Level Pressure  
Sea Level Pressure 29.79 in    
Wind  
Wind Speed 11 mph ()    
Max Wind Speed 17 mph    
Max Gust Speed -    
Visibility 3.0 miles    
Events      
Averages and records for this station are not official NWS values.
T = Trace of Precipitation, MM = Missing Value Source: Averaged Metar Reports

Daily Weather History Graph

Daily Weather History Graph

Search for Another Location

Airport or City:

Astronomy

May. 30, 2013 Rise Set
Actual Time 4:54 AM EET 6:50 PM EET
Civil Twilight 4:27 AM EET 7:17 PM EET
Nautical Twilight 3:54 AM EET 7:49 PM EET
Astronomical Twilight 3:19 AM EET 8:24 PM EET
Moon 11:32 PM EET (5/30) 10:24 AM EET (5/30)
Length of Visible Light 14h 50m
Length of Day
13h 56m
Waning Gibbous, 65% of the Moon is Illuminated
May 30
Waning Gibbous
May 31
Last Quarter
Jun 8
New
Jun 16
First Quarter
Jun 23
Full

Hourly Weather History & Observations

Time (EET) Temp. Heat Index Dew Point Humidity Pressure Visibility Wind Dir Wind Speed Gust Speed Precip Events Conditions
12:00 AM 87.8 °F - 28.4 °F 12% 29.71 in - South 11.5 mph - N/A   Clear
12:30 AM 93.2 °F - 26.6 °F 9% 29.71 in - SSE 17.3 mph - N/A   Clear
1:00 AM 93.2 °F - 26.6 °F 9% 29.68 in - SSE 17.3 mph - N/A   Clear
1:30 AM 91.4 °F - 24.8 °F 9% 29.68 in - SSE 17.3 mph - N/A   Clear
2:00 AM 91 °F - 24 °F 4% 29.68 in 2 mi South 17.3 mph - -   Blowing Sand
2:00 AM 91.4 °F - 23.0 °F 8% 29.71 in 1.9 mi South 17.3 mph - N/A   Sand
2:30 AM 89.6 °F - 28.4 °F 11% 29.71 in 1.9 mi WSW 13.8 mph - N/A   Sand
3:00 AM 87.8 °F - 33.8 °F 15% 29.71 in 3.7 mi SW 12.7 mph - N/A   Unknown
3:30 AM 86.0 °F - 41.0 °F 20% 29.74 in 2.5 mi West 12.7 mph - N/A   Sand
4:00 AM 82.4 °F - 51.8 °F 35% 29.74 in 2.5 mi West 10.4 mph - N/A   Unknown
4:30 AM 80.6 °F 80.3 °F 53.6 °F 39% 29.74 in 2.5 mi WSW 8.1 mph - N/A   Unknown
5:00 AM 80.6 °F 80.5 °F 55.4 °F 42% 29.74 in 1.2 mi West 8.1 mph - N/A   Unknown
5:30 AM 78.8 °F - 55.4 °F 44% 29.77 in 1.2 mi WSW 9.2 mph - N/A   Unknown
6:00 AM 78.8 °F - 57.2 °F 47% 29.77 in 1.2 mi West 9.2 mph - N/A   Unknown
6:30 AM 77.0 °F - 60.8 °F 57% 29.80 in 1.2 mi West 10.4 mph - N/A   Unknown
7:00 AM 77.0 °F - 60.8 °F 57% 29.80 in 1.2 mi WNW 12.7 mph - N/A   Sand
7:30 AM 77.0 °F - 64.4 °F 65% 29.80 in 1.2 mi West 12.7 mph - N/A   Sand
8:00 AM 77 °F - 62 °F 51% 30.40 in 2 mi WNW 9.2 mph - -   Widespread Dust
8:00 AM 77.0 °F - 62.6 °F 61% 29.80 in 2.5 mi WNW 9.2 mph - N/A   Unknown
8:30 AM 78.8 °F - 60.8 °F 54% 29.83 in 2.5 mi WNW 13.8 mph - N/A   Sand
9:00 AM 80.6 °F 81.5 °F 60.8 °F 51% 29.83 in 3.7 mi WNW 11.5 mph - N/A   Unknown
9:30 AM 80.6 °F 81.5 °F 60.8 °F 51% 29.83 in 3.7 mi WNW 12.7 mph - N/A   Unknown
10:00 AM 86.0 °F 85.4 °F 59.0 °F 40% 29.83 in 3.7 mi WNW 9.2 mph - N/A   Unknown
10:30 AM 86.0 °F 85.4 °F 59.0 °F 40% 29.83 in 3.7 mi WNW 9.2 mph - N/A   Unknown
11:00 AM 87.8 °F 86.1 °F 55.4 °F 33% 29.83 in 3.7 mi WNW 9.2 mph - N/A   Unknown
11:30 AM 89.6 °F 87.7 °F 55.4 °F 31% 29.83 in 3.7 mi WNW 9.2 mph - N/A   Unknown
12:00 PM 89.6 °F 87.7 °F 55.4 °F 31% 29.80 in 3.7 mi NW 6.9 mph - N/A   Unknown
12:30 PM 89.6 °F 87.7 °F 55.4 °F 31% 29.80 in 3.7 mi NW 6.9 mph - N/A   Unknown
1:00 PM 93.2 °F - 51.8 °F 24% 29.80 in 3.7 mi West 6.9 mph - N/A   Unknown
1:30 PM 95.0 °F 92.7 °F 53.6 °F 25% 29.80 in 3.7 mi NW 3.5 mph - N/A   Unknown
2:00 PM 95.0 °F - 48.2 °F 20% 29.80 in 3.7 mi West 5.8 mph - N/A   Unknown
2:30 PM 96.8 °F - 48.2 °F 19% 29.77 in 3.7 mi NW 9.2 mph - N/A   Unknown
3:00 PM 96.8 °F - 50.0 °F 20% 29.77 in 3.7 mi WNW 9.2 mph - N/A   Unknown
3:30 PM 96.8 °F - 51.8 °F 22% 29.77 in 3.7 mi West 10.4 mph - N/A   Unknown
4:00 PM 96.8 °F - 51.8 °F 22% 29.77 in - NNW 8.1 mph - N/A   Clear
4:30 PM 96.8 °F - 51.8 °F 22% 29.77 in - NW 6.9 mph - N/A   Clear
5:00 PM 96.8 °F - 48.2 °F 19% 29.77 in - NNW 6.9 mph - N/A   Clear
5:30 PM 95.0 °F - 46.4 °F 19% 29.77 in 3.7 mi NNW 6.9 mph - N/A   Unknown
6:00 PM 93.2 °F - 48.2 °F 21% 29.77 in 3.7 mi NNW 11.5 mph - N/A   Unknown
6:30 PM 93.2 °F - 48.2 °F 21% 29.80 in 3.7 mi NNW 12.7 mph - N/A   Unknown
7:00 PM 93.2 °F - 50.0 °F 23% 29.80 in 3.7 mi NNW 11.5 mph - N/A   Unknown
7:30 PM 89.6 °F 88.9 °F 59.0 °F 36% 29.80 in 3.7 mi NNW 11.5 mph - N/A   Unknown
8:00 PM 87 °F - 63 °F 35% 29.81 in 4 mi North 12.7 mph - -   Blowing Sand
8:00 PM 87.8 °F 88.5 °F 62.6 °F 43% 29.83 in 3.7 mi North 12.7 mph - N/A   Unknown
8:30 PM 86.0 °F 87.3 °F 64.4 °F 48% 29.83 in 3.7 mi North 12.7 mph - N/A   Unknown
9:00 PM 84.2 °F 85.0 °F 62.6 °F 48% 29.83 in 3.7 mi North 10.4 mph - N/A   Unknown
9:30 PM 84.2 °F 85.0 °F 62.6 °F 48% 29.83 in 3.7 mi North 10.4 mph - N/A   Unknown
10:00 PM 82.4 °F 82.9 °F 60.8 °F 48% 29.83 in 3.7 mi North 9.2 mph - N/A   Unknown
10:30 PM 82.4 °F 82.9 °F 60.8 °F 48% 29.83 in - North 9.2 mph - N/A   Clear
11:00 PM 80.6 °F 81.8 °F 62.6 °F 54% 29.86 in - NE 11.5 mph - N/A   Clear
11:30 PM 80.6 °F 81.8 °F 62.6 °F 54% 29.83 in - NE 9.2 mph - N/A   Clear